Location: *
(0.1100°N, 5.5000°E)
Time: 15:02:09
(UTC+00:00)

Cosmos 841 Rocket - Pass Details

Date: 07 December 2022
Orbit: 745 x 772 km, 74.0° (Epoch: 03 February)

Event Time Altitude Azimuth Distance (km) Brightness Sun altitude
Rises 19:13:28 0° 205° (SSW) 3,200 7.5 -23.9°
Reaches altitude 10° 19:15:56 10° 212° (SSW) 2,269 6.7 -24.4°
Maximum altitude 19:20:46 42° 282° (WNW) 1,056 4.5 -25.5°
Enters shadow 19:23:28 23° 339° (NNW) 1,541 5.0 -26.1°
